KF0ZH Weather Reports


Display with metric or nautical units.
time (UTC)temp
F
wind
direction
speed
MPH
gust
MPH
rain 1hr
in
rain 24hr
in
rain mn
in
humidity
%
barometer
mb
20200403232101 29 317 7.0 9.0 0.00 0.00 0.00 89 1022.3
20200403231601 29 258 4.0 10.0 0.00 0.00 0.00 89 1022.3
20200403231102 29 313 8.0 9.0 0.00 0.00 0.00 90 1022.3
20200403230601 29 272 5.0 11.0 0.00 0.00 0.00 90 1022.2
20200403230101 29 277 4.0 11.0 0.00 0.00 0.00 90 1022.3
20200403225101 29 293 9.0 11.0 0.00 0.00 0.00 90 1022.1
20200403224601 29 306 8.0 15.0 0.00 0.00 0.00 90 1021.9
20200403224101 29 274 7.0 10.0 0.00 0.00 0.00 90 1022.1
20200403223601 29 320 0.0 7.0 0.00 0.00 0.00 91 1022.2
20200403223101 29 298 2.0 8.0 0.00 0.00 0.00 91 1022.2
20200403222601 29 268 0.0 9.0 0.00 0.00 0.00 91 1022.2
20200403222101 29 268 5.0 9.0 0.00 0.00 0.00 91 1022.1
20200403221601 29 313 7.0 12.0 0.00 0.00 0.00 90 1022.1
20200403220601 29 260 0.0 3.0 0.00 0.00 0.00 91 1021.7
20200403220101 29 302 10.0 17.0 0.00 0.00 0.00 90 1021.6
20200403215603 29 334 6.0 9.0 0.00 0.00 0.00 91 1021.7
20200403215101 29 261 4.0 13.0 0.00 0.00 0.00 91 1021.4
20200403214601 29 331 6.0 10.0 0.00 0.00 0.00 92 1021.6
20200403214101 29 313 9.0 10.0 0.00 0.00 0.00 91 1021.6
20200403213601 29 320 6.0 11.0 0.00 0.00 0.00 91 1021.6
20200403213101 29 243 5.0 12.0 0.00 0.00 0.00 91 1021.6
20200403212101 29 289 12.0 16.0 0.00 0.00 0.00 91 1021.2
20200403211603 29 305 12.0 13.0 0.00 0.00 0.00 91 1021.3
20200403210101 29 270 5.0 7.0 0.00 0.00 0.00 92 1021.7
20200403205101 29 282 8.0 10.0 0.00 0.00 0.00 92 1021.4
20200403204601 29 291 7.0 13.0 0.00 0.00 0.00 92 1021.5
20200403203601 28 293 6.0 11.0 0.00 0.00 0.00 92 1021.3
20200403203102 28 275 3.0 5.0 0.00 0.00 0.00 93 1021.3
20200403202603 28 315 8.0 17.0 0.00 0.00 0.00 92 1021.4
20200403201601 28 299 8.0 9.0 0.00 0.00 0.00 93 1021.2
20200403201103 28 296 7.0 17.0 0.00 0.00 0.00 91 1021.3
20200403200601 28 299 4.0 14.0 0.00 0.00 0.00 92 1021.3
20200403195604 28 295 10.0 10.0 0.00 0.00 0.00 93 1021.5
20200403194601 28 289 13.0 13.0 0.00 0.00 0.00 94 1021.3
20200403193601 28 274 7.0 7.0 0.00 0.00 0.00 94 1021.1
20200403193101 28 303 7.0 8.0 0.00 0.00 0.00 94 1021.2
20200403192102 28 293 5.0 11.0 0.00 0.00 0.00 93 1021.2
20200403191603 27 310 5.0 9.0 0.00 0.00 0.00 95 1021.2
20200403191104 27 284 5.0 12.0 0.00 0.00 0.00 95 1021.1
20200403191007 27 310 6.0 9.0 0.00 0.00 0.00 95 1021.0
20200403190601 27 310 6.0 9.0 0.00 0.00 0.00 95 1021.0
20200403190104 27 293 4.0 9.0 0.00 0.00 0.00 96 1021.1
20200403185101 27 315 6.0 6.0 0.00 0.00 0.00 96 1021.0
20200403184601 27 275 9.0 15.0 0.00 0.00 0.00 95 1020.9
20200403183633 27 261 0.0 11.0 0.00 0.00 0.00 95 1020.9
20200403183601 27 261 0.0 11.0 0.00 0.00 0.00 95 1020.9
20200403183101 27 260 4.0 12.0 0.00 0.00 0.00 95 1021.0
20200403182156 27 315 4.0 10.0 0.00 0.00 0.00 95 1020.9
20200403182102 27 315 4.0 10.0 0.00 0.00 0.00 95 1020.9
20200403181659 27 286 6.0 11.0 0.00 0.00 0.00 95 1020.9
20200403181602 27 286 6.0 11.0 0.00 0.00 0.00 95 1020.9
20200403181101 27 268 4.0 13.0 0.00 0.00 0.00 95 1020.8
20200403180601 27 307 7.0 7.0 0.00 0.00 0.00 96 1020.6
20200403175602 27 288 3.0 5.0 0.00 0.00 0.00 97 1020.7
20200403174654 26 316 5.0 9.0 0.00 0.00 0.00 95 1020.7
20200403174601 26 316 5.0 9.0 0.00 0.00 0.00 95 1020.7
20200403173101 27 289 4.0 12.0 0.00 0.00 0.00 95 1020.6
20200403172602 27 302 6.0 9.0 0.00 0.00 0.00 96 1020.6
20200403171601 26 300 7.0 15.0 0.00 0.00 0.00 95 1020.8
20200403171102 27 316 11.0 12.0 0.00 0.00 0.00 96 1020.8
20200403170601 27 278 4.0 5.0 0.00 0.00 0.00 97 1020.9
20200403170103 26 296 8.0 12.0 0.00 0.00 0.00 96 1021.0
20200403165602 27 247 0.0 4.0 0.00 0.00 0.00 96 1021.0
20200403165102 27 270 9.0 9.0 0.00 0.00 0.00 96 1021.2
20200403164601 27 285 4.0 8.0 0.00 0.00 0.00 96 1021.3
20200403163604 27 289 7.0 12.0 0.00 0.00 0.00 95 1021.2
20200403163101 27 285 3.0 3.0 0.00 0.00 0.00 96 1021.2
20200403162601 26 317 8.0 10.0 0.00 0.00 0.00 95 1021.2
20200403160602 27 272 0.0 7.0 0.00 0.00 0.00 96 1021.1
20200403160102 27 4 0.0 9.0 0.00 0.00 0.00 95 1021.1
20200403155603 27 299 9.0 9.0 0.00 0.00 0.00 96 1021.1
20200403154601 27 274 5.0 7.0 0.00 0.00 0.00 95 1021.0
20200403153101 27 289 0.0 4.0 0.00 0.00 0.00 97 1020.8
20200403152101 27 302 0.0 0.0 0.00 0.00 0.00 97 1020.6
20200403151601 26 271 0.0 0.0 0.00 0.00 0.00 97 1020.7
20200403150602 26 305 4.0 8.0 0.00 0.00 0.00 97 1020.4
20200403150101 26 288 6.0 9.0 0.00 0.00 0.00 97 1020.5
20200403145103 26 319 6.0 8.0 0.00 0.00 0.00 97 1020.4
20200403144601 26 295 6.0 10.0 0.00 0.00 0.00 97 1020.3
20200403143601 26 210 3.0 6.0 0.00 0.00 0.00 98 1020.3
20200403143101 26 309 5.0 11.0 0.00 0.00 0.00 98 1020.3
20200403142601 26 284 2.0 4.0 0.00 0.00 0.00 98 1020.2
20200403142101 26 293 0.0 0.0 0.00 0.00 0.00 98 1020.1
20200403141601 26 334 1.0 7.0 0.00 0.00 0.00 98 1020.2
20200403141103 26 292 0.0 0.0 0.00 0.00 0.00 98 1020.1
20200403135601 26 303 7.0 9.0 0.00 0.00 0.00 99 1019.7
20200403135102 26 267 5.0 5.0 0.00 0.00 0.00 99 1019.6
20200403134601 26 303 0.0 5.0 0.00 0.00 0.00 99 1019.6
20200403134102 26 330 0.0 11.0 0.00 0.00 0.00 99 1019.4
20200403133601 26 344 0.0 0.0 0.00 0.00 0.00 99 1019.5
20200403133101 26 303 0.0 0.0 0.00 0.00 0.00 98 1019.6
20200403132601 26 251 5.0 10.0 0.00 0.00 0.00 98 1019.7
20200403132101 26 261 3.0 9.0 0.00 0.00 0.00 99 1019.6
20200403131601 26 248 5.0 8.0 0.00 0.00 0.00 98 1019.8
20200403130601 26 306 8.0 12.0 0.00 0.00 0.00 99 1019.7
20200403130101 26 254 0.0 12.0 0.00 0.00 0.00 99 1019.6
20200403125603 26 312 0.0 14.0 0.00 0.00 0.00 99 1019.7
20200403125101 26 300 5.0 7.0 0.00 0.00 0.00 99 1019.5
20200403124601 26 296 2.0 7.0 0.00 0.00 0.00 99 1019.7
20200403123601 26 241 4.0 10.0 0.00 0.00 0.00 99 1019.3
20200403123101 26 271 4.0 7.0 0.00 0.00 0.00 99 1019.2
20200403121601 27 288 0.0 0.0 0.00 0.00 0.00 99 1019.0
20200403120239 27 310 0.0 0.0 0.00 0.14 0.10 99 1019.1
20200403115736 27 267 0.0 0.0 0.00 0.14 0.10 99 1018.9
20200403115236 27 315 0.0 8.0 0.00 0.14 0.10 99 1018.9
20200403114736 27 316 4.0 12.0 0.00 0.14 0.10 99 1018.7
20200403114237 27 315 3.0 6.0 0.00 0.14 0.10 99 1018.7
20200403113736 27 267 4.0 10.0 0.00 0.14 0.10 99 1018.7
20200403113238 27 282 4.0 9.0 0.00 0.14 0.10 99 1018.7
20200403112736 27 291 8.0 14.0 0.00 0.14 0.10 99 1018.9
20200403112236 28 255 0.0 10.0 0.00 0.14 0.10 99 1018.7
20200403111738 28 291 9.0 9.0 0.00 0.14 0.10 99 1018.6
20200403111237 28 271 6.0 11.0 0.00 0.14 0.10 99 1018.7
20200403110736 28 298 9.0 13.0 0.00 0.14 0.10 99 1018.8
20200403110239 28 296 3.0 9.0 0.00 0.14 0.10 99 1018.6
20200403105737 28 255 0.0 6.0 0.00 0.14 0.10 99 1018.1
20200403105236 28 271 5.0 9.0 0.00 0.14 0.10 99 1018.2
20200403104740 28 288 0.0 10.0 0.00 0.14 0.10 99 1018.1
20200403104237 28 258 4.0 9.0 0.00 0.14 0.10 99 1018.1
20200403103736 29 265 0.0 8.0 0.00 0.14 0.10 99 1018.0
20200403103236 29 267 0.0 7.0 0.00 0.14 0.10 99 1017.8
20200403102737 29 286 4.0 8.0 0.00 0.14 0.10 99 1017.9
20200403102236 29 268 0.0 6.0 0.00 0.14 0.10 99 1017.8
20200403101737 29 278 3.0 9.0 0.00 0.14 0.10 99 1017.7
20200403101237 29 270 2.0 10.0 0.00 0.14 0.10 99 1017.8
20200403100736 29 255 0.0 4.0 0.00 0.14 0.10 99 1017.9
20200403100236 29 225 3.0 6.0 0.00 0.14 0.10 99 1017.6
20200403095237 29 300 3.0 8.0 0.00 0.14 0.10 99 1017.4
20200403094737 30 261 0.0 9.0 0.00 0.14 0.10 99 1017.4
20200403094237 29 286 0.0 12.0 0.00 0.14 0.10 99 1017.5
20200403093736 30 232 0.0 8.0 0.00 0.14 0.10 99 1017.4
20200403093236 30 243 0.0 9.0 0.00 0.14 0.10 99 1017.4
20200403092736 30 275 0.0 11.0 0.00 0.14 0.10 99 1017.3
20200403092236 30 239 0.0 10.0 0.00 0.14 0.10 99 1017.2
20200403090736 30 205 4.0 10.0 0.00 0.14 0.10 99 1017.1
20200403085236 30 247 4.0 12.0 0.00 0.14 0.10 99 1017.0
20200403084737 30 272 0.0 10.0 0.00 0.14 0.10 99 1017.0
20200403083737 31 270 0.0 11.0 0.00 0.14 0.10 99 1016.9
20200403083237 30 261 0.0 10.0 0.00 0.14 0.10 99 1016.8
20200403082238 30 272 5.0 9.0 0.00 0.14 0.10 99 1016.7
20200403081736 30 254 0.0 0.0 0.00 0.14 0.10 99 1016.7
20200403081237 30 216 3.0 10.0 0.00 0.14 0.10 99 1016.8
20200403080736 31 289 0.0 13.0 0.00 0.14 0.10 99 1016.7
20200403080236 31 257 2.0 6.0 0.00 0.14 0.10 99 1016.7
20200403075736 31 285 3.0 8.0 0.00 0.14 0.10 99 1016.6
20200403075238 31 180 0.0 9.0 0.00 0.14 0.10 99 1016.5
20200403074237 31 282 0.0 12.0 0.00 0.14 0.10 99 1016.6
20200403072736 31 254 4.0 11.0 0.00 0.14 0.10 99 1016.5
20200403071736 31 296 0.0 9.0 0.00 0.14 0.10 99 1016.4
20200403071237 31 234 5.0 15.0 0.00 0.14 0.10 99 1016.4
20200403070236 32 239 2.0 13.0 0.00 0.14 0.10 99 1016.2
20200403065736 32 234 7.0 10.0 0.00 0.14 0.10 99 1016.1
20200403065236 33 264 0.0 7.0 0.00 0.14 0.10 99 1016.0
20200403064737 33 286 8.0 12.0 0.00 0.14 0.10 99 1015.9
20200403064239 33 191 0.0 10.0 0.00 0.14 0.10 99 1015.9
20200403063737 34 261 3.0 10.0 0.00 0.14 0.10 99 1015.9
20200403063236 34 285 5.0 12.0 0.00 0.14 0.10 99 1015.8
20200403062736 34 229 4.0 9.0 0.00 0.14 0.10 99 1015.8
20200403062236 34 274 6.0 9.0 0.00 0.14 0.10 99 1015.6
20200403061737 34 288 7.0 12.0 0.00 0.14 0.10 99 1015.6
20200403061237 34 251 3.0 9.0 0.10 0.14 0.10 99 1015.4
20200403060736 34 244 9.0 13.0 0.10 0.14 0.10 99 1015.4
20200403055236 36 254 7.0 10.0 0.10 0.14 0.10 99 1015.1
20200403054737 37 281 0.0 13.0 0.10 0.14 0.10 99 1015.1
20200403054237 37 239 7.0 11.0 0.10 0.14 0.10 99 1015.0
20200403053736 37 241 4.0 9.0 0.10 0.14 0.10 99 1014.8
20200403053236 38 240 8.0 14.0 0.12 0.14 0.10 99 1014.6
20200403052736 38 257 6.0 10.0 0.12 0.14 0.10 99 1014.6
20200403052236 38 226 8.0 16.0 0.12 0.14 0.10 99 1014.5
20200403051739 39 233 3.0 17.0 0.12 0.14 0.10 99 1014.5
20200403050936 40 244 6.0 9.0 0.02 0.04 0.00 99 1014.4
20200403050438 40 225 4.0 11.0 0.04 0.04 0.00 99 1014.3
20200403045936 40 226 7.0 11.0 0.04 0.04 0.04 99 1014.3
20200403045436 41 212 3.0 7.0 0.04 0.04 0.04 99 1014.0
20200403044936 41 275 7.0 10.0 0.04 0.04 0.04 99 1014.1
20200403044438 42 212 6.0 11.0 0.04 0.04 0.04 99 1014.1
20200403043437 43 230 0.0 10.0 0.04 0.04 0.04 99 1014.0
20200403042936 43 234 5.0 8.0 0.02 0.02 0.02 99 1013.9
20200403041936 44 202 0.0 0.0 0.02 0.02 0.02 99 1013.6
20200403040836 44 202 0.0 0.0 0.00 0.00 0.00 97 1013.5
20200403040336 44 202 0.0 4.0 0.00 0.00 0.00 98 1013.4
20200403035836 44 220 0.0 5.0 0.00 0.00 0.00 98 1013.4
20200403035336 44 216 3.0 8.0 0.00 0.00 0.00 97 1013.3
20200403034836 45 222 7.0 8.0 0.00 0.00 0.00 97 1013.3
20200403034336 45 254 0.0 9.0 0.00 0.00 0.00 98 1013.4
20200403033836 45 215 5.0 10.0 0.00 0.00 0.00 97 1013.4
20200403033336 45 222 6.0 10.0 0.00 0.00 0.00 97 1013.3
20200403032836 46 220 4.0 13.0 0.00 0.00 0.00 96 1013.2
20200403032336 46 279 3.0 10.0 0.00 0.00 0.00 96 1013.1
20200403031836 47 254 12.0 18.0 0.00 0.00 0.00 95 1013.1
20200403031336 48 226 5.0 10.0 0.00 0.00 0.00 94 1013.1
20200403030836 48 250 7.0 13.0 0.00 0.00 0.00 94 1012.9
20200403030336 50 244 8.0 13.0 0.00 0.00 0.00 92 1012.9
20200403025836 52 226 6.0 19.0 0.00 0.00 0.00 88 1012.7
20200403025336 54 282 7.0 15.0 0.00 0.00 0.00 83 1012.5
20200403024836 56 244 7.0 11.0 0.00 0.00 0.00 80 1012.4
20200403024336 58 202 8.0 11.0 0.00 0.00 0.00 74 1012.3
20200403023836 58 156 7.0 11.0 0.00 0.00 0.00 73 1012.1
20200403023336 59 167 7.0 14.0 0.00 0.00 0.00 73 1012.0
20200403022842 59 115 4.0 16.0 0.00 0.00 0.00 72 1012.0
20200403022336 59 185 9.0 15.0 0.00 0.00 0.00 72 1012.0
20200403021836 58 161 8.0 12.0 0.00 0.00 0.00 71 1012.1
20200403021336 59 182 9.0 14.0 0.00 0.00 0.00 71 1012.0
20200403020836 59 167 6.0 12.0 0.00 0.00 0.00 72 1011.9
20200403020336 59 111 3.0 9.0 0.00 0.00 0.00 73 1011.9
20200403015836 59 150 6.0 13.0 0.00 0.00 0.00 72 1011.9
20200403015336 59 158 7.0 12.0 0.00 0.00 0.00 71 1011.9
20200403014836 59 143 5.0 10.0 0.00 0.00 0.00 72 1011.8
20200403014336 59 172 12.0 12.0 0.00 0.00 0.00 71 1011.8
20200403013836 59 167 6.0 11.0 0.00 0.00 0.00 72 1011.7
20200403013336 59 137 4.0 9.0 0.00 0.00 0.00 72 1011.6
20200403012336 59 156 3.0 9.0 0.00 0.00 0.00 74 1011.4
20200403011836 58 132 0.0 0.0 0.00 0.00 0.00 75 1011.4
20200403010836 59 132 0.0 4.0 0.00 0.00 0.00 76 1011.2
20200403010336 59 106 0.0 0.0 0.00 0.00 0.00 76 1011.2
20200403005836 58 106 2.0 4.0 0.00 0.00 0.00 74 1011.2
20200403005336 59 104 0.0 7.0 0.00 0.00 0.00 75 1011.2
20200403004836 58 61 0.0 0.0 0.00 0.00 0.00 75 1011.2
20200403004336 59 61 0.0 0.0 0.00 0.00 0.00 74 1011.4
20200403003837 58 61 0.0 0.0 0.00 0.00 0.00 75 1011.4
20200403003336 59 75 0.0 0.0 0.00 0.00 0.00 76 1011.5
20200403002836 58 75 0.0 0.0 0.00 0.00 0.00 76 1011.6
20200403002336 58 75 0.0 0.0 0.00 0.00 0.00 77 1011.6
20200403001836 58 75 0.0 0.0 0.00 0.00 0.00 77 1011.7
20200403001336 58 75 0.0 0.0 0.00 0.00 0.00 77 1011.6
20200403000836 58 75 0.0 0.0 0.00 0.00 0.00 77 1011.6
20200402235837 59 75 0.0 0.0 0.00 0.00 0.00 77 1011.8
20200402235336 58 75 0.0 0.0 0.00 0.00 0.00 77 1011.8
20200402234337 58 75 0.0 0.0 0.00 0.00 0.00 78 1011.9
20200402233836 58 75 0.0 6.0 0.00 0.00 0.00 78 1011.9
20200402233336 57 82 0.0 0.0 0.00 0.00 0.00 80 1011.9
20200402232836 57 82 0.0 0.0 0.00 0.00 0.00 80 1011.9